Find Tianlian 3-01

NORAD ID: 100172 Int'l Des: 2026-172 Owner: CAST Country: CN Constellation: starlink operational

当前视图

正在加载3D地球...

About Tianlian 3-01

Tianlian 3-01 (NORAD 100172) is a starlink constellation satellite (v2 mini) launched Jul 24, 2026 by CAST of CN. with a mass of 6000.00 kg.

即将过境

Passes for default location (London). Set your location on the main map for personalized predictions.

高度历史

Loading altitude history...

两行轨道根数

1 A0172U 26172A 26210.73258231 .00007279 00000-0 10443-2 0 9999
2 A0172 15.4420 145.4634 7295286 179.7295 181.2239 2.28006376 26
Epoch: Jul 29, 2026 • Age: 327 hours

当前状态

高度 34159.4 km
远地点 / 近地点 N/A
速度 1.82 km/s
星下点 5.26°N, 64.45°E
发射日期 Jul 24, 2026
运行时间 18 days
类型 other

技术详情

分类 Payload
质量 6000.00 kg
干质量 3000.00 kg
总质量 6000.00 kg
长度 6.00 m
直径 2.50 m
跨度 20.00 m
形状 Box + 2 Pan + Dish
制造商 CAST
平台类型 DFH-4E
阶段状态 In Orbit
所有者/国家 CAST/CN

Most Searched